Weather History for Rome, NY

Change the Weather History Date:

Tuesday, July 31, 2012

  Actual Average Record
Temperature  
Mean Temperature 78 °F -  
Max Temperature 86 °F 78 °F 86 °F (2011)
Min Temperature 68 °F 58 °F 48 °F (2010)
Cooling Degree Days 12    
Growing Degree Days 28 (Base 50)    
Moisture  
Dew Point 65 °F    
Average Humidity 70    
Maximum Humidity 90    
Minimum Humidity 44    
Precipitation  
Precipitation 0.00 in - - ()
Sea Level Pressure  
Sea Level Pressure 29.97 in    
Wind  
Wind Speed 8 mph (SE)    
Max Wind Speed 14 mph    
Max Gust Speed 18 mph    
Visibility 10 miles    
Events      
Averages and records for this station are not official NWS values.
T = Trace of Precipitation, MM = Missing Value Source: NWS Daily Summary

Daily Weather History Graph

Daily Weather History Graph

Search for Another Location

Airport:

Trip Planner

Search our weather history database for the weather conditions in past years. The results will help you decide how hot, cold, wet, or windy it might be!

Date:

Astronomy

Jul. 31, 2012 Rise Set
Actual Time 5:51 AM EDT 8:24 PM EDT
Civil Twilight 5:18 AM EDT 8:56 PM EDT
Nautical Twilight 4:38 AM EDT 9:36 PM EDT
Astronomical Twilight 3:52 AM EDT 10:22 PM EDT
Moon 7:10 PM EDT 4:08 AM EDT
Length of Visible Light 15h 37m
Length of Day
14h 32m
Waxing Gibbous, 97% of the Moon is Illuminated
Jul 31
Waxing Gibbous
Aug 1
Full
Aug 9
Last Quarter
Aug 17
New
Aug 24
First Quarter

Hourly Weather History & Observations

Time (EDT) Temp. Heat Index Dew Point Humidity Pressure Visibility Wind Dir Wind Speed Gust Speed Precip Events Conditions
12:53 AM 73.0 °F - 64.0 °F 73% 30.01 in 10.0 mi East 5.8 mph - N/A   Overcast
1:53 AM 72.0 °F - 64.0 °F 76% 30.01 in 10.0 mi ESE 8.1 mph - N/A   Partly Cloudy
2:53 AM 72.0 °F - 63.0 °F 73% 30.01 in 10.0 mi SE 9.2 mph - N/A   Scattered Clouds
3:53 AM 72.0 °F - 64.0 °F 76% 30.01 in 10.0 mi ESE 5.8 mph - N/A   Overcast
4:53 AM 69.1 °F - 64.0 °F 84% 30.01 in 10.0 mi East 5.8 mph - N/A   Partly Cloudy
5:29 AM 69.1 °F - 64.0 °F 84% 30.03 in 10.0 mi East 6.9 mph - N/A   Mostly Cloudy
5:53 AM 69.1 °F - 64.9 °F 87% 30.01 in 10.0 mi East 4.6 mph - N/A   Overcast
6:33 AM 70.0 °F - 64.9 °F 84% 30.02 in 10.0 mi East 8.1 mph - N/A   Scattered Clouds
6:53 AM 70.0 °F - 64.9 °F 84% 30.01 in 10.0 mi East 5.8 mph - N/A   Partly Cloudy
7:53 AM 73.0 °F - 66.0 °F 79% 30.00 in 10.0 mi East 6.9 mph - N/A   Clear
8:53 AM 75.0 °F - 66.0 °F 73% 29.99 in 10.0 mi ESE 9.2 mph - N/A   Clear
9:53 AM 77.0 °F - 66.9 °F 71% 29.99 in 10.0 mi SE 8.1 mph - N/A   Partly Cloudy
10:53 AM 80.1 °F 82.3 °F 66.9 °F 64% 29.97 in 10.0 mi SSE 9.2 mph - N/A   Scattered Clouds
11:53 AM 81.0 °F 83.3 °F 66.9 °F 62% 29.96 in 10.0 mi SSE 9.2 mph - N/A   Scattered Clouds
12:53 PM 84.0 °F 86.5 °F 66.9 °F 56% 29.93 in 10.0 mi SE 12.7 mph 18.4 mph N/A   Partly Cloudy
1:53 PM 84.9 °F 86.1 °F 64.0 °F 49% 29.91 in 10.0 mi South 13.8 mph - N/A   Mostly Cloudy
3:53 PM 86.0 °F 86.3 °F 62.1 °F 44% 29.87 in 10.0 mi South 10.4 mph - N/A   Scattered Clouds
4:53 PM 86.0 °F 86.3 °F 62.1 °F 44% 29.85 in 10.0 mi South 12.7 mph - N/A   Partly Cloudy
5:53 PM 82.9 °F 84.4 °F 64.0 °F 53% 29.85 in 10.0 mi South 12.7 mph - N/A   Mostly Cloudy
11:53 PM 68.0 °F - 64.9 °F 90% 29.88 in 10.0 mi East 3.5 mph - N/A   Clear